TimeCDT,TemperatureF,Dew PointF,Humidity,Sea Level PressureIn,VisibilityMPH,Wind Direction,Wind SpeedMPH,Gust SpeedMPH,PrecipitationIn,Events,Conditions,WindDirDegrees,DateUTC
12:56 AM,39.0,37.0,93,30.05,8.0,NE,4.6,-,N/A,,Overcast,50,2013-04-09 05:56:00
1:56 AM,37.9,37.0,97,30.04,9.0,NNE,4.6,-,N/A,,Overcast,30,2013-04-09 06:56:00
2:42 AM,37.4,35.6,93,29.98,10.0,NE,5.8,-,N/A,,Overcast,40,2013-04-09 07:42:00
2:56 AM,37.9,36.0,93,30.00,10.0,NE,6.9,-,N/A,,Overcast,50,2013-04-09 07:56:00
3:56 AM,37.9,36.0,93,30.05,9.0,Calm,Calm,-,N/A,,Overcast,0,2013-04-09 08:56:00
4:56 AM,37.0,36.0,96,30.04,9.0,North,5.8,-,N/A,,Overcast,360,2013-04-09 09:56:00
5:56 AM,37.0,35.1,93,30.04,10.0,NNE,8.1,-,N/A,,Overcast,30,2013-04-09 10:56:00
6:56 AM,37.0,35.1,93,30.05,10.0,NE,6.9,-,0.00,,Overcast,40,2013-04-09 11:56:00
7:56 AM,37.0,35.1,93,30.04,10.0,NE,8.1,-,N/A,,Overcast,40,2013-04-09 12:56:00
8:56 AM,37.0,35.1,93,30.02,10.0,NE,11.5,-,0.00,Rain,Light Rain,50,2013-04-09 13:56:00
9:56 AM,37.0,34.0,89,30.02,10.0,NNE,12.7,18.4,0.00,,Overcast,30,2013-04-09 14:56:00
10:56 AM,37.0,35.1,93,30.04,8.0,NE,8.1,-,0.02,Rain,Rain,40,2013-04-09 15:56:00
11:56 AM,37.0,36.0,96,30.05,4.0,NNE,8.1,-,N/A,Rain,Heavy Rain,30,2013-04-09 16:56:00
12:56 PM,37.9,36.0,93,30.05,7.0,NNE,12.7,18.4,0.05,Rain,Rain,30,2013-04-09 17:56:00
1:03 PM,37.4,35.6,93,30.02,7.0,NNE,13.8,-,0.00,Rain,Rain,20,2013-04-09 18:03:00
1:13 PM,37.4,35.6,93,30.02,7.0,NNE,12.7,23.0,N/A,Rain,Rain,30,2013-04-09 18:13:00
1:49 PM,37.4,35.6,93,30.03,9.0,NE,12.7,19.6,N/A,Rain,Light Rain,40,2013-04-09 18:49:00
1:56 PM,37.9,36.0,93,30.06,9.0,NNE,10.4,-,N/A,Rain,Light Rain,30,2013-04-09 18:56:00
2:56 PM,39.9,37.0,89,30.05,10.0,NE,11.5,21.9,0.00,Rain,Light Rain,40,2013-04-09 19:56:00
3:17 PM,39.2,35.6,87,30.02,10.0,NE,18.4,24.2,0.00,Rain,Light Rain,40,2013-04-09 20:17:00
3:48 PM,41.0,35.6,81,30.02,10.0,NE,12.7,23.0,0.00,Rain,Light Rain,40,2013-04-09 20:48:00
3:56 PM,41.0,36.0,82,30.04,10.0,NE,15.0,20.7,0.00,Rain,Light Rain,40,2013-04-09 20:56:00
4:21 PM,42.8,35.6,76,30.02,10.0,NE,17.3,-,0.00,,Overcast,50,2013-04-09 21:21:00
4:43 PM,42.8,33.8,70,30.01,10.0,NE,16.1,23.0,0.00,,Overcast,50,2013-04-09 21:43:00
4:56 PM,41.0,33.1,73,30.05,10.0,NE,13.8,21.9,0.00,,Overcast,50,2013-04-09 21:56:00
5:56 PM,41.0,33.1,73,30.09,10.0,NE,9.2,-,0.00,Rain,Light Rain,40,2013-04-09 22:56:00
6:56 PM,39.9,30.9,70,30.11,10.0,NE,8.1,-,0.00,,Overcast,50,2013-04-09 23:56:00
7:56 PM,39.0,30.9,73,30.10,10.0,NNE,6.9,-,0.00,,Overcast,30,2013-04-10 00:56:00
8:56 PM,37.9,26.1,62,30.07,10.0,NE,11.5,26.5,N/A,,Overcast,40,2013-04-10 01:56:00
9:56 PM,37.0,26.1,65,30.09,10.0,ENE,13.8,24.2,0.00,Rain,Light Rain,60,2013-04-10 02:56:00
10:56 PM,34.0,28.9,82,30.08,10.0,NE,6.9,-,0.04,Rain,Rain,50,2013-04-10 03:56:00
11:56 PM,33.1,30.0,89,30.17,7.0,Calm,Calm,-,0.07,Snow,Light Snow,0,2013-04-10 04:56:00